Torna al catalogo

COSMOS 970 DEB

AttivoLEO
NORAD 13503·DEBRIS·🇷🇺 Russia

Lanciato Dec 21, 1977 da Baikonur Cosmodrome

Loading…

Prossimi Passaggi (prossime 24 ore)

TLE

AggiornatoSource: Space-Track

Epoca: Sep 14, 2026, 11:02 UTC

1 13503U 77121BA  26257.45986721 -.00000007  00000-0  95944-4 0  9997
2 13503  66.4718 327.8584 0075658  35.2014 338.4607 13.52456049169241

Traccia COSMOS 970 DEB in tempo reale con AllMySat

Download on the App Store